DW8873 Weather Reports


Display with metric or nautical units.
time (UTC)temp
F
wind
direction
speed
MPH
gust
MPH
rain 1hr
in
rain 24hr
in
rain mn
in
humidity
%
barometer
mb
20260901204635 65 340 1.0 4.0 0.00 0.00 0.00 59 1016.0
20260901203602 64 272 0.0 1.0 0.00 0.00 0.00 58 1016.0
20260901202601 64 272 0.0 1.0 0.00 0.00 0.00 58 1016.3
20260901201559 64 272 0.0 2.0 0.00 0.00 0.00 57 1016.3
20260901200557 63 272 1.0 2.0 0.00 0.00 0.00 56 1016.3
20260901195556 63 339 1.0 1.0 0.00 0.00 0.00 53 1016.0
20260901194554 64 339 0.0 1.0 0.00 0.00 0.00 53 1015.6
20260901193552 64 339 0.0 2.0 0.00 0.00 0.00 57 1015.6
20260901192551 64 339 1.0 2.0 0.00 0.00 0.00 59 1015.3
20260901191549 63 339 0.0 1.0 0.00 0.00 0.00 59 1015.6
20260901190548 63 339 1.0 1.0 0.00 0.00 0.00 59 1015.3
20260901185547 63 339 0.0 0.0 0.00 0.00 0.00 59 1015.3
20260901184545 63 339 0.0 1.0 0.00 0.00 0.00 59 1015.3
20260901183544 64 339 0.0 2.0 0.00 0.00 0.00 60 1015.0
20260901182511 64 339 1.0 7.0 0.00 0.00 0.00 60 1015.0
20260901181510 64 340 1.0 9.0 0.00 0.00 0.00 60 1015.0
20260901180508 65 338 5.0 9.0 0.00 0.00 0.00 60 1015.0
20260901175506 65 339 5.0 9.0 0.00 0.00 0.00 59 1015.0
20260901174505 65 342 2.0 9.0 0.00 0.00 0.00 59 1015.3
20260901173432 64 342 4.0 7.0 0.00 0.00 0.00 60 1015.0
20260901172431 64 343 2.0 6.0 0.00 0.00 0.00 60 1015.3
20260901171327 65 341 2.0 7.0 0.00 0.00 0.00 59 1015.3
20260901170326 65 340 3.0 7.0 0.00 0.00 0.00 59 1015.3
20260901165324 65 339 2.0 7.0 0.00 0.00 0.00 59 1015.3
20260901164252 65 344 3.0 7.0 0.00 0.00 0.00 59 1015.7
20260901163251 65 336 2.0 5.0 0.00 0.00 0.00 59 1015.7
20260901162249 65 336 1.0 3.0 0.00 0.00 0.00 59 1015.7
20260901161247 65 335 1.0 3.0 0.00 0.00 0.00 59 1016.0
20260901160245 65 336 1.0 3.0 0.00 0.00 0.00 59 1015.7
20260901155244 65 335 2.0 3.0 0.00 0.00 0.00 60 1016.0
20260901154211 65 341 1.0 5.0 0.00 0.00 0.00 59 1016.0
20260901153210 65 345 1.0 5.0 0.00 0.00 0.00 59 1016.0
20260901152208 66 0 1.0 2.0 0.00 0.00 0.00 59 1016.0
20260901151207 66 0 1.0 5.0 0.00 0.00 0.00 59 1016.3
20260901150205 66 360 0.0 5.0 0.00 0.00 0.00 58 1016.3
20260901145203 66 343 1.0 5.0 0.00 0.00 0.00 58 1016.3
20260901144201 66 305 1.0 6.0 0.00 0.00 0.00 59 1016.7
20260901143159 66 336 2.0 8.0 0.00 0.00 0.00 59 1016.7
20260901142118 65 325 3.0 8.0 0.00 0.00 0.00 59 1016.7
20260901141014 65 343 1.0 5.0 0.00 0.00 0.00 59 1016.7
20260901140013 65 340 2.0 4.0 0.00 0.00 0.00 59 1017.0
20260901135012 64 350 1.0 4.0 0.00 0.00 0.00 59 1017.0
20260901134010 64 312 1.0 3.0 0.00 0.00 0.00 59 1017.0
20260901133008 65 319 1.0 7.0 0.00 0.00 0.00 59 1017.0
20260901131936 66 327 1.0 7.0 0.00 0.00 0.00 58 1017.0
20260901130935 66 346 2.0 7.0 0.00 0.00 0.00 57 1017.0
20260901125933 66 316 2.0 7.0 0.00 0.00 0.00 56 1017.4
20260901124932 65 338 2.0 4.0 0.00 0.00 0.00 58 1017.3
20260901123931 65 336 0.0 2.0 0.00 0.00 0.00 58 1017.3
20260901122930 66 336 1.0 5.0 0.00 0.00 0.00 56 1017.4
20260901121929 66 335 1.0 5.0 0.00 0.00 0.00 56 1017.4
20260901120927 65 337 2.0 5.0 0.00 0.00 0.00 57 1017.7
20260901115925 64 345 1.0 4.0 0.00 0.00 0.00 58 1017.7
20260901114924 64 353 1.0 2.0 0.00 0.00 0.00 58 1018.0
20260901113923 64 349 1.0 2.0 0.00 0.00 0.00 57 1018.4
20260901112922 64 5 1.0 2.0 0.00 0.00 0.00 57 1018.4
20260901111920 64 306 1.0 1.0 0.00 0.00 0.00 58 1018.7
20260901110816 64 306 0.0 1.0 0.00 0.00 0.00 59 1018.7
20260901105815 64 306 0.0 1.0 0.00 0.00 0.00 59 1018.7
20260901104813 64 271 1.0 1.0 0.00 0.00 0.00 58 1018.7
20260901103740 64 259 0.0 1.0 0.00 0.00 0.00 58 1018.7
20260901102739 65 259 0.0 1.0 0.00 0.00 0.00 56 1018.7
20260901101738 66 259 0.0 1.0 0.00 0.00 0.00 55 1018.7
20260901100737 67 259 0.0 1.0 0.00 0.00 0.00 51 1018.7
20260901095735 68 259 0.0 1.0 0.00 0.00 0.00 49 1018.7
20260901094733 68 259 0.0 1.0 0.00 0.00 0.00 48 1018.7
20260901093732 69 259 0.0 1.0 0.00 0.00 0.00 46 1018.7
20260901092731 69 259 0.0 1.0 0.00 0.00 0.00 45 1019.1
20260901091658 70 259 0.0 1.0 0.00 0.00 0.00 43 1018.7
20260901090657 71 258 0.0 0.0 0.00 0.00 0.00 40 1018.7
20260901085656 71 258 0.0 2.0 0.00 0.00 0.00 38 1018.7
20260901084654 54 336 0.0 1.0 0.00 0.00 0.00 1 1027.4